Terminal Aerodrome Forecast
Issued by NWS Mt. Holly, NJ

Home | Current Version | Previous Version | Text Only | Print | Product List | Glossary On
Versions: 1 2 3 4 5 6 7 8 9 10 11 12 13 14 15
000
FTUS41 KPHI 042120 AAA
TAFRDG
TAF AMD
KRDG 042120Z 0421/0518 09009KT P6SM SCT035 BKN080
     FM050100 09005KT P6SM SCT025
     FM050700 06004KT 4SM BR BKN025
     FM051400 08007KT P6SM SCT025 BKN050=

USA.gov is the U.S. government's official web portal to all federal, state and local government web resources and services.